Airfield :
LOGIN :

Register | Disclaimer

   EN    FR    IT 

 










Legend :    VFR   Marginal VFR   IFR   Intensive IFR   Very Intensive IFR
Visi :
Ceiling :
>= 8 km
>= 3000ft
5 to 8 km
1000 to 3000 ft
1500m to 5 km
500 to 1000 ft
800 to 1500m
200 to 500 ft
< 800m
< 200 ft
Symbols :   Thunderstorms  Fog  Heavy snow  Heavy precipitations  Wind > 20 kt
SIGMETs :     Misc.  Thunderstorms  Icing  Turbulence  Mountain Waves  Volcanic Ashes







- Airport Elevation : 83 ft
- IATA code : VOL


LGBL - Aghialos Volos

CURRENT METAR :
  • 222250Z 17002KT 9999 FEW030 BKN080 14/10 Q1020

EXPIRED METARs :
  • 222150Z 12005KT 9999 FEW030 BKN080 14/07 Q1021
  • 222050Z 13008KT 9999 FEW030 BKN080 15/08 Q1020

TAF TAF LGBL
Valid from the 23 at 00:00 until the 23 at 09:00 UTC


222300Z 2300/2309 12012KT 9999 FEW020 BKN080
PROB30
TEMPO 2300/2309 8000 RA SCT020 BKN080
BECMG 2307/2309 11010G20KT
No reported NOTAMs for that airfield.



MET'MAP, your aeronautical weather chart ! - Copyright ORBIFLY December 2007 - Disclaimer

ORBIFLY MET'MAP TEAM :

Programming & Development : Alexandra Zaïnal
Concept & Development : Baudouin d'Aumeries
Co-Development & Prog : Marc-Olivier Méhu
Technical & hardware support : Manuel Goepfert

Contact : metmap@orbifly.com




SOURCES & CREDITS :

   NOAA